{"data":{"norad_id":63245,"epoch":"2026-09-22T21:25:41.413152Z","epoch_age_seconds":102034,"freshness":"FRESH","line1":"1 63245U 25052AM  26265.89284043  .00001450  00000+0  13741-3 0  9991","line2":"2 63245  97.6707 154.8554 0002526 238.2764 121.8210 14.95094256 83198","mean_motion":14.95094256,"eccentricity":0.0002526,"inclination_deg":97.6707,"raan_deg":154.8554,"arg_perigee_deg":238.2764,"mean_anomaly_deg":121.821,"bstar":0.00013741,"rev_number":8319,"period_min":96.314997815094,"perigee_km":580.32205379518,"apogee_km":583.83835552697,"semimajor_km":6960.2172046611,"source":"CELESTRAK","updated_at":"2026-09-23T09:00:21.935337Z"}}